[[{"header":{"parameterUnit":"m.s-1","parameterCategory":1,"la1":30.2991,"la2":30.254,"lo1":-89.0895,"lo2":-89.0444,"dy":0.0017,"dx":0.0017,"nx":28,"ny":28,"refTime":"2023-08-25T03:00:00:Z","depth":0,"parameterNumber":2,"parameterNumberName":"U-component_of_WINDS"},"data":[0,0,0,0,0,0,0,0,0,0,0,0,0,0,0,0,0,0,0,0,0,0,0,0,0,0,0,0,0,0,0,0,0,0,0,0,0,0,0,0,0,0,0,0,0,0,0,0,0,0,0,0,0,0,0,0,0,0,0.7144,0.7146,0,0.7356,0.7358,0.736,0.7363,0.736,0.7358,0.7355,0.7575,0.7583,0.7591,0,0,0,0,0,0,0,0,0,0,0,0,0,0.6745,0.6752,0.7144,0.7146,0.7149,0.7355,0.7358,0.7361,0.7364,0.736,0.7357,0.7354,0.7572,0.7582,0.7592,0,0,0,0,0,0,0,0,0,0,0,0,0,0.6933,0.6754,0.7143,0.7175,0.718,0.7355,0.7358,0.7362,0.7364,0.736,0.7356,0.7352,0.7569,0.7581,0.7593,0.7751,0,0,0.7631,0.7637,0,0,0,0,0,0,0,0,0.6923,0.6948,0.7168,0.7173,0.7179,0.7329,0.7298,0.7492,0.7365,0.7294,0.7355,0.735,0.7496,0.7514,0.7563,0.7761,0.777,0.7632,0.764,0.7645,0.7649,0,0,0,0,0,0,0,0.691,0.6939,0.7228,0.7171,0.7178,0.718,0.7202,0.7335,0.7415,0.73,0.7301,0.7326,0.7498,0.7551,0.7568,0.7774,0.7632,0.7643,0.7651,0.7656,0.8114,0.8118,0,0,0,0,0,0,0.689,0.6928,0.7221,0.7234,0.7038,0.719,0.7215,0.7285,0.7414,0.743,0.7329,0.7325,0.7532,0.7554,0.7576,0.7771,0.7645,0.7657,0.7664,0.8109,0.8115,0.812,0,0,0,0,0,0,0.6881,0.6916,0.7212,0.7081,0.7119,0.7201,0.7279,0.7291,0.7344,0.7436,0.745,0.7368,0.7529,0.7558,0.7708,0.7779,0.7663,0.7674,0.8104,0.8111,0.8118,0.8162,0,0,0,0,0,0,0.687,0.6913,0.6973,0.7083,0.7126,0.734,0.7284,0.7298,0.7365,0.7362,0.7476,0.7491,0.7528,0.7689,0.772,0.7794,0.7684,0.8098,0.8107,0.8115,0.8154,0.8169,0.8182,0,0,0,0,0,0.6855,0.6977,0.6976,0.7011,0.7203,0.7344,0.7369,0.7409,0.737,0.7432,0.7492,0.7487,0.7765,0.7704,0.7739,0.7818,0.8094,0.8105,0.8115,0.8148,0.8166,0.8182,0,0,0,0,0,0,0.6874,0.6992,0.6992,0.7152,0.7238,0.7344,0.7423,0.7427,0.7526,0.7519,0.7565,0.7591,0.774,0.7793,0.7723,0.7978,0.7925,0.7943,0.7938,0.7956,0.797,0.7955,0.7694,0,0,0,0,0,0.6896,0.7,0.7098,0.723,0.7273,0.734,0.7403,0.7427,0.7518,0.7554,0.7624,0.7714,0.7821,0.7891,0.7995,0.8161,0.8187,0.8232,0.8246,0.8257,0.8273,0.8367,0.8389,0.8155,0.8155,0.8154,0,0,0.6944,0.7022,0.7084,0.7235,0.7305,0.7413,0.7371,0.7486,0.7567,0.7572,0.7718,0.7772,0.7875,0.8034,0.8107,0.8083,0.8343,0.8271,0.8279,0.8289,0.838,0.8402,0.8422,0.8162,0.816,0.8159,0,0,0.7088,0.7155,0.7274,0.7344,0.7449,0.7493,0.7522,0.7628,0.7664,0.7811,0.7817,0.7914,0.8098,0.8172,0.8233,0.8405,0.8405,0.8437,0.8511,0.8602,0.8621,0.8637,0.8701,0.8723,0.8452,0.8452,0.8452,0,0.7135,0.7296,0.7334,0.7451,0.7518,0.7526,0.7648,0.7714,0.7848,0.7895,0.7865,0.8098,0.8167,0.8344,0.8386,0.8435,0.847,0.8426,0.8614,0.8632,0.8648,0.8709,0.8733,0.8456,0.8455,0.8455,0.8455,0,0.735,0.7462,0.7545,0.7674,0.7751,0.7869,0.7926,0.7999,0.8016,0.8063,0.8214,0.8297,0.8419,0.8462,0.848,0.8643,0.8625,0.8604,0.8552,0.8673,0.8732,0.8755,0.8461,0.8459,0.8458,0.8457,0,0,0.7512,0.7661,0.7691,0.775,0.7867,0.7955,0.8074,0.8193,0.8255,0.8347,0.845,0.8605,0.8588,0.8657,0.8683,0.8762,0.8896,0.8733,0.8736,0.8762,0.9084,0.91,0.9127,0.8896,0.89,0.8904,0.9076,0,0.767,0.7881,0.7919,0.8104,0.821,0.8219,0.8323,0.8406,0.8454,0.8551,0.8604,0.8715,0.8682,0.8724,0.8803,0.8863,0.8962,0.8851,0.8994,0.8999,0.897,0.9157,0.9175,0.9333,0.9099,0.9103,0.9105,0,0.7883,0.798,0.8175,0.8279,0.8325,0.8417,0.853,0.8622,0.8718,0.8747,0.8825,0.8842,0.8967,0.8907,0.9082,0.9006,0.9066,0.9105,0.9112,0.9129,0.9061,0.9181,0.9384,0.9409,0.9141,0.9138,0.9136,0,0.7985,0.8164,0.8305,0.8355,0.8479,0.8544,0.8599,0.869,0.876,0.8858,0.8904,0.9016,0.9078,0.9165,0.9212,0.9163,0.9384,0.9328,0.9414,0.9413,0.9462,0.9459,0.968,0.9497,0.9496,0.9496,0.9495,0,0.8158,0.8278,0.8353,0.844,0.8575,0.8617,0.875,0.8804,0.8885,0.8984,0.8998,0.909,0.9145,0.9246,0.9283,0.9424,0.9451,0.948,0.9489,0.948,0.9477,0.9522,0.9514,0.9502,0.9501,0.9499,0.9498,0,0.8296,0.835,0.8505,0.8609,0.8638,0.8734,0.8824,0.8909,0.8956,0.9081,0.9113,0.9187,0.9307,0.9362,0.9509,0.9534,0.9695,0.9695,0.9663,0.9667,0.9751,0.9743,1.0011,1.005,0.9838,0.984,0.9842,0,0.8405,0.8497,0.8612,0.8678,0.8735,0.8842,0.8913,0.8958,0.9032,0.9148,0.922,0.9339,0.9438,0.9629,0.9697,0.981,0.9815,0.9901,0.9832,0.9821,0.9819,0.9814,0.9825,0.9914,0.9916,0.9918,0.9919,0,0.8593,0.8615,0.8716,0.8828,0.8912,0.9002,0.909,0.9144,0.9204,0.9286,0.9408,0.9484,0.9635,0.9755,0.9873,0.993,0.9936,0.994,0.9966,0.996,0.9939,0.9954,0.97,0.9934,0.9933,0.9932,0.9931,0.993,0.8722,0.8805,0.8899,0.9011,0.9082,0.9165,0.9251,0.9309,0.9411,0.9537,0.9557,0.9688,0.9782,0.9941,1.0003,1.0107,1.0087,1.0124,1.0134,1.0144,1.015,0.992,1.0128,1.0128,1.0127,1.0127,1.0127,0,0.8912,0.8973,0.9076,0.9199,0.9289,0.9284,0.9382,0.9457,0.9572,0.9659,0.9755,0.9896,1.0012,1.0089,1.0207,1.0276,1.0282,1.0305,1.0302,1.0316,1.016,1.0126,1.0299,1.0299,1.0299,1.0299,1.0299,1.0299,0.9022,0.9164,0.9198,0.9375,0.9435,0.9563,0.9619,0.9696,0.9766,0.9923,1.0019,1.0068,1.0152,1.0276,1.0383,1.0402,1.0446,1.0472,1.0491,1.0345,1.0327,1.031,1.0279,1.048,1.048,1.0639,1.0641,1.0642]},{"header":{"parameterUnit":"m.s-1","parameterCategory":1,"la1":30.2991,"la2":30.254,"lo1":-89.0895,"lo2":-89.0444,"dy":0.0017,"dx":0.0017,"nx":28,"ny":28,"refTime":"2023-08-25T03:00:00:Z","depth":0,"parameterNumber":3,"parameterNumberName":"V-component_of_WINDS"},"data":[0,0,0,0,0,0,0,0,0,0,0,0,0,0,0,0,0,0,0,0,0,0,0,0,0,0,0,0,0,0,0,0,0,0,0,0,0,0,0,0,0,0,0,0,0,0,0,0,0,0,0,0,0,0,0,0,0,0,-1.4887,-1.4887,0,-1.4879,-1.4879,-1.4879,-1.4967,-1.4969,-1.4971,-1.4974,-1.4962,-1.496,-1.4957,0,0,0,0,0,0,0,0,0,0,0,0,0,-1.4978,-1.4976,-1.4887,-1.4887,-1.4887,-1.4879,-1.4879,-1.4879,-1.4966,-1.4969,-1.4972,-1.4975,-1.4963,-1.496,-1.4957,0,0,0,0,0,0,0,0,0,0,0,0,0,-1.4951,-1.4976,-1.4887,-1.493,-1.4933,-1.4879,-1.4879,-1.4879,-1.4966,-1.4969,-1.4973,-1.4976,-1.4964,-1.4961,-1.4957,-1.4861,0,0,-1.4945,-1.4943,0,0,0,0,0,0,0,0,-1.4953,-1.4948,-1.4923,-1.4927,-1.4931,-1.4928,-1.4907,-1.4873,-1.4965,-1.4953,-1.4974,-1.4978,-1.4948,-1.4945,-1.4936,-1.486,-1.486,-1.4945,-1.4942,-1.4941,-1.494,0,0,0,0,0,0,0,-1.4954,-1.4949,-1.4884,-1.4923,-1.4927,-1.4949,-1.4949,-1.4901,-1.493,-1.4954,-1.4961,-1.4959,-1.495,-1.4939,-1.4936,-1.4859,-1.4945,-1.4941,-1.4939,-1.4938,-1.4711,-1.4707,0,0,0,0,0,0,-1.4951,-1.495,-1.4884,-1.4884,-1.4951,-1.4945,-1.4945,-1.4925,-1.4931,-1.4935,-1.4956,-1.4963,-1.4944,-1.4941,-1.4936,-1.4829,-1.4941,-1.4937,-1.4935,-1.4714,-1.471,-1.4706,0,0,0,0,0,0,-1.4952,-1.4944,-1.4884,-1.4918,-1.4913,-1.4939,-1.4916,-1.4923,-1.4912,-1.4932,-1.4937,-1.4939,-1.4947,-1.4942,-1.488,-1.4829,-1.4935,-1.4932,-1.4719,-1.4713,-1.4708,-1.4609,0,0,0,0,0,0,-1.4955,-1.4944,-1.4907,-1.4917,-1.491,-1.4828,-1.4913,-1.492,-1.4906,-1.4915,-1.4918,-1.4922,-1.4949,-1.4886,-1.4877,-1.4826,-1.4929,-1.4723,-1.4716,-1.471,-1.4617,-1.4601,-1.4587,0,0,0,0,0,-1.4958,-1.4878,-1.4905,-1.4897,-1.4865,-1.4825,-1.4821,-1.4855,-1.4901,-1.4865,-1.4879,-1.4922,-1.4836,-1.4879,-1.4869,-1.4816,-1.4727,-1.4718,-1.471,-1.4624,-1.4604,-1.4587,0,0,0,0,0,0,-1.4859,-1.488,-1.491,-1.4831,-1.4826,-1.484,-1.4795,-1.4832,-1.4813,-1.4822,-1.4865,-1.4865,-1.4797,-1.48,-1.4848,-1.4727,-1.479,-1.4779,-1.4727,-1.4709,-1.4694,-1.4695,-1.4926,0,0,0,0,0,-1.4828,-1.4794,-1.4814,-1.4742,-1.4739,-1.4767,-1.4751,-1.4778,-1.4774,-1.4772,-1.4781,-1.4774,-1.4747,-1.4728,-1.4703,-1.4618,-1.4622,-1.4577,-1.4562,-1.455,-1.454,-1.4501,-1.4483,-1.4678,-1.4678,-1.4678,0,0,-1.4763,-1.4771,-1.4746,-1.4723,-1.4722,-1.4687,-1.4764,-1.4722,-1.4698,-1.4765,-1.4709,-1.4716,-1.4712,-1.464,-1.4609,-1.4641,-1.4488,-1.4539,-1.4529,-1.4526,-1.449,-1.4472,-1.4455,-1.4672,-1.4673,-1.4674,0,0,-1.4629,-1.463,-1.4573,-1.4572,-1.4571,-1.4592,-1.4578,-1.4587,-1.4595,-1.454,-1.4592,-1.4562,-1.4512,-1.4509,-1.4501,-1.4371,-1.4412,-1.4362,-1.4284,-1.4245,-1.4229,-1.4216,-1.4174,-1.4157,-1.4352,-1.4352,-1.4352,0,-1.4549,-1.4499,-1.4538,-1.4496,-1.4485,-1.4547,-1.4492,-1.4488,-1.4478,-1.447,-1.4506,-1.4449,-1.445,-1.4381,-1.435,-1.434,-1.4328,-1.4362,-1.4228,-1.4215,-1.4203,-1.4164,-1.4147,-1.4346,-1.4347,-1.4347,-1.4348,0,-1.4403,-1.4367,-1.4321,-1.4314,-1.4298,-1.4248,-1.4282,-1.4261,-1.4291,-1.4308,-1.4254,-1.4258,-1.4238,-1.4223,-1.425,-1.4159,-1.418,-1.4221,-1.4285,-1.4178,-1.4142,-1.4127,-1.4338,-1.434,-1.4342,-1.4343,0,0,-1.4203,-1.4223,-1.4206,-1.4206,-1.4211,-1.4185,-1.4139,-1.4122,-1.4105,-1.4097,-1.4062,-1.4021,-1.4061,-1.4052,-1.4079,-1.4045,-1.3947,-1.4091,-1.4092,-1.4068,-1.3853,-1.3823,-1.3805,-1.3974,-1.3971,-1.3969,-1.3854,0,-1.4076,-1.4001,-1.4038,-1.3958,-1.3929,-1.399,-1.3951,-1.3951,-1.3966,-1.3943,-1.396,-1.3932,-1.3985,-1.3981,-1.3949,-1.3966,-1.3905,-1.3974,-1.3944,-1.3942,-1.3946,-1.3785,-1.3753,-1.3645,-1.384,-1.3837,-1.3836,0,-1.3917,-1.3906,-1.3825,-1.3842,-1.383,-1.3795,-1.3785,-1.3761,-1.3764,-1.3778,-1.377,-1.3807,-1.3766,-1.3829,-1.3774,-1.382,-1.381,-1.3817,-1.3814,-1.3814,-1.3884,-1.3784,-1.361,-1.3595,-1.3813,-1.3814,-1.3816,0,-1.3785,-1.375,-1.3699,-1.3696,-1.3712,-1.3687,-1.3692,-1.3699,-1.3688,-1.3678,-1.3672,-1.3657,-1.3649,-1.3637,-1.367,-1.3713,-1.3613,-1.3677,-1.3625,-1.3625,-1.3603,-1.3604,-1.3428,-1.3591,-1.3591,-1.3591,-1.3592,0,-1.3641,-1.3589,-1.3641,-1.3609,-1.3554,-1.3598,-1.3543,-1.3555,-1.3561,-1.3534,-1.3584,-1.3557,-1.3601,-1.358,-1.3605,-1.3559,-1.3553,-1.3565,-1.3573,-1.3563,-1.3562,-1.3558,-1.3568,-1.3587,-1.3588,-1.3589,-1.359,0,-1.3484,-1.3516,-1.3465,-1.3487,-1.3491,-1.345,-1.347,-1.3442,-1.3463,-1.3428,-1.3422,-1.3454,-1.3432,-1.3464,-1.3443,-1.3461,-1.3398,-1.3416,-1.3398,-1.3404,-1.3352,-1.3358,-1.317,-1.3149,-1.3322,-1.332,-1.3319,0,-1.3391,-1.3354,-1.3374,-1.3361,-1.3364,-1.3341,-1.3331,-1.3373,-1.3361,-1.3364,-1.3337,-1.332,-1.3308,-1.327,-1.3291,-1.3278,-1.3298,-1.3233,-1.3296,-1.3288,-1.3301,-1.3304,-1.3303,-1.322,-1.3218,-1.3216,-1.3215,0,-1.3224,-1.3244,-1.3228,-1.322,-1.3208,-1.3202,-1.32,-1.3186,-1.3231,-1.3215,-1.3194,-1.3186,-1.3168,-1.3151,-1.3144,-1.315,-1.3191,-1.3195,-1.3183,-1.3173,-1.3166,-1.3173,-1.3366,-1.3199,-1.3201,-1.3202,-1.3203,-1.3203,-1.31,-1.3072,-1.3083,-1.3065,-1.307,-1.3068,-1.3045,-1.3065,-1.3048,-1.3039,-1.3064,-1.3038,-1.3046,-1.3041,-1.3044,-1.3025,-1.3054,-1.3035,-1.3031,-1.3027,-1.3021,-1.3167,-1.3023,-1.3024,-1.3024,-1.3025,-1.3025,0,-1.2939,-1.295,-1.2934,-1.2932,-1.292,-1.296,-1.2962,-1.2949,-1.2926,-1.293,-1.292,-1.2898,-1.2883,-1.2905,-1.2894,-1.2876,-1.2894,-1.2872,-1.2875,-1.2877,-1.2993,-1.3007,-1.2857,-1.2857,-1.2857,-1.2857,-1.2857,-1.2857,-1.2854,-1.2811,-1.2832,-1.2792,-1.2803,-1.278,-1.2778,-1.2778,-1.2783,-1.2757,-1.2746,-1.2761,-1.2774,-1.2766,-1.2755,-1.2762,-1.2757,-1.2729,-1.2742,-1.2851,-1.2868,-1.2884,-1.2897,-1.2726,-1.2726,-1.2628,-1.2627,-1.2627]}]]